This is the latest recevied weather packets stored in our database for station/object N4NVD-13. If no packets are shown the sender has not sent any weather packets the latest 10 day(s).
| Time | Temp. | Humidity | Pressure | Rain* | Wind** | Luminosity | Snow |
|---|---|---|---|---|---|---|---|
| 1777428738 | 26.11° C | 90% | 1010 hPa | 0 mm | - | 0 W/m² | - |
| 1777428434 | 26.67° C | 89% | 1009.9 hPa | 0 mm | - | 0 W/m² | - |
| 1777428129 | 26.67° C | 89% | 1009.9 hPa | 0 mm | - | 0 W/m² | - |
| 1777427825 | 26.67° C | 89% | 1009.8 hPa | 0 mm | - | 0 W/m² | - |
| 1777427523 | 26.67° C | 89% | 1009.7 hPa | 0 mm | - | 0 W/m² | - |
| 1777427218 | 26.67° C | 88% | 1009.5 hPa | 0 mm | - | 0 W/m² | - |
| 1777426916 | 26.67° C | 88% | 1009.6 hPa | 0 mm | - | 0 W/m² | - |
| 1777426613 | 27.22° C | 88% | 1009.3 hPa | 0 mm | - | 0 W/m² | - |
| 1777426309 | 27.22° C | 87% | 1009.5 hPa | 0 mm | - | 0 W/m² | - |
| 1777426004 | 27.22° C | 87% | 1009.3 hPa | 0 mm | - | 0 W/m² | - |
| 1777425699 | 27.22° C | 87% | 1009.2 hPa | 0 mm | - | 0 W/m² | - |
| 1777425394 | 27.22° C | 86% | 1009.3 hPa | 0 mm | - | 0 W/m² | - |
| 1777425091 | 27.78° C | 86% | 1009.3 hPa | 0 mm | - | 0 W/m² | - |
| 1777424788 | 27.78° C | 85% | 1009.1 hPa | 0 mm | - | 0 W/m² | - |
| 1777424483 | 27.78° C | 85% | 1009.1 hPa | 0 mm | - | 0 W/m² | - |
| 1777424179 | 27.78° C | 85% | 1009.2 hPa | 0 mm | - | 1 W/m² | - |
| 1777423877 | 27.78° C | 84% | 1009.2 hPa | 0 mm | - | 4 W/m² | - |
| 1777423572 | 28.33° C | 84% | 1009 hPa | 0 mm | - | 9 W/m² | - |
| 1777423268 | 28.33° C | 84% | 1008.9 hPa | 0 mm | - | 12 W/m² | - |
| 1777422963 | 28.33° C | 83% | 1008.8 hPa | 0 mm | - | 18 W/m² | - |
| 1777422657 | 28.89° C | 82% | 1008.6 hPa | 0 mm | - | 32 W/m² | - |
| 1777422353 | 28.89° C | 82% | 1008.5 hPa | 0 mm | - | 44 W/m² | - |
| 1777422042 | 28.89° C | 81% | 1008.5 hPa | 0 mm | - | 55 W/m² | - |
| 1777421737 | 28.89° C | 81% | 1008.5 hPa | 0 mm | - | 50 W/m² | - |
| 1777421433 | 28.89° C | 81% | 1008.7 hPa | 0 mm | - | 56 W/m² | - |
* Rain latest hour (hover to see other rain measurements)
** Current wind speed in m/s (hover to see current wind gust speed)